This is the latest recevied weather packets stored in our database for station/object W0AKO. If no packets are shown the sender has not sent any weather packets the latest 10 day(s).
| Time | Temp. | Humidity | Pressure | Rain* | Wind** | Luminosity | Snow |
|---|---|---|---|---|---|---|---|
| 1777830820 | 25° C | 10% | 1015.1 hPa | 0 mm | - | 746 W/m² | - |
| 1777830515 | 25° C | 10% | 1014.7 hPa | 0 mm | - | 958 W/m² | - |
| 1777830213 | 24.44° C | 10% | 1015.1 hPa | 0 mm | - | 919 W/m² | - |
| 1777829908 | 24.44° C | 10% | 1015.2 hPa | 0 mm | - | 888 W/m² | - |
| 1777829605 | 24.44° C | 10% | 1015.5 hPa | 0 mm | - | 316 W/m² | - |
| 1777829302 | 24.44° C | 10% | 1015.5 hPa | 0 mm | - | 827 W/m² | - |
| 1777829000 | 23.89° C | 10% | 1015.3 hPa | 0 mm | - | 803 W/m² | - |
| 1777828695 | 23.89° C | 10% | 1015.3 hPa | 0 mm | - | 786 W/m² | - |
| 1777828392 | 23.89° C | 10% | 1015.5 hPa | 0 mm | - | 760 W/m² | - |
| 1777828090 | 23.89° C | 10% | 1015.7 hPa | 0 mm | - | 722 W/m² | - |
| 1777827786 | 22.78° C | 10% | 1015.7 hPa | 0 mm | - | 653 W/m² | - |
| 1777827483 | 22.22° C | 10% | 1015.8 hPa | 0 mm | - | 637 W/m² | - |
| 1777827181 | 23.33° C | 10% | 1015.8 hPa | 0 mm | - | 642 W/m² | - |
| 1777826876 | 22.22° C | 10% | 1016 hPa | 0 mm | - | 608 W/m² | - |
| 1777826574 | 21.67° C | 10% | 1015.8 hPa | 0 mm | - | 587 W/m² | - |
| 1777826270 | 21.11° C | 10% | 1016.2 hPa | 0 mm | - | 590 W/m² | - |
| 1777825968 | 21.11° C | 10% | 1016.2 hPa | 0 mm | - | 574 W/m² | - |
| 1777825664 | 20.56° C | 10% | 1016.4 hPa | 0 mm | - | 530 W/m² | - |
| 1777825363 | 20.56° C | 10% | 1016.6 hPa | 0 mm | - | 483 W/m² | - |
| 1777825059 | 20° C | 10% | 1016.4 hPa | 0 mm | - | 443 W/m² | - |
| 1777824755 | 20.56° C | 10% | 1016.4 hPa | 0 mm | - | 422 W/m² | - |
| 1777824452 | 20° C | 10% | 1016.4 hPa | 0 mm | - | 395 W/m² | - |
| 1777824148 | 20° C | 10% | 1016.7 hPa | 0 mm | - | 360 W/m² | - |
| 1777823844 | 19.44° C | 10% | 1016.6 hPa | 0 mm | - | 348 W/m² | - |
| 1777823543 | 20° C | 10% | 1016.5 hPa | 0 mm | - | 337 W/m² | - |
* Rain latest hour (hover to see other rain measurements)
** Current wind speed in m/s (hover to see current wind gust speed)